When you browse on this site, cookies collect data to enhance your experience and personalize the content and advertising you see.
Visit our Privacy Policy to learn more. By continuing to use the site, you agree to this use of cookies and data.
  • In France
  • List of Countries
  • For 7 days
  • Water Temperature
  • Weather Map
  • Weather Widgets
  • user-avatar
    Login

    Hourly Weather Uige

    Today, 19 February, Wednesday

    Time Temperature Precipitation Wind Pressure Humidity
    00:00 +20°C° 0 mm 0 mps 691 mmHg 96%
    01:00 +20°C° 0 mm 0 mps 691 mmHg 97%
    02:00 +20°C° 0.3 mm 0 mps 690 mmHg 97%
    03:00 +22°C° 0.3 mm 1 mps 690 mmHg 98%
    04:00 +22°C° 0.3 mm 1 mps 690 mmHg 98%
    05:00 +22°C° 0.1 mm 1 mps 690 mmHg 98%
    06:00 +22°C° 0.1 mm 1 mps 691 mmHg 98%
    07:00 +21°C° 0 mm 0 mps 691 mmHg 98%
    08:00 +23°C° 0.5 mm 1 mps 691 mmHg 98%
    09:00 +23°C° 0.5 mm 1 mps 692 mmHg 97%
    10:00 +23°C° 0.5 mm 1 mps 692 mmHg 96%
    11:00 +23°C° 1.6 mm 1 mps 692 mmHg 96%
    12:00 +23°C° 1.6 mm 1 mps 692 mmHg 97%
    13:00 +21°C° 1.6 mm 0 mps 692 mmHg 97%
    14:00 +22°C° 0.8 mm 1 mps 691 mmHg 97%
    15:00 +22°C° 0.8 mm 1 mps 690 mmHg 97%
    16:00 +21°C° 0.8 mm 2 mps 690 mmHg 97%
    17:00 +22°C° 0 mm 1 mps 690 mmHg 98%
    18:00 +22°C° 0 mm 1 mps 690 mmHg 98%
    19:00 +21°C° 0 mm 1 mps 690 mmHg 99%
    20:00 +21°C° 0 mm 1 mps 690 mmHg 97%
    21:00 +21°C° 0 mm 1 mps 690 mmHg 95%
    22:00 +21°C° 0 mm 1 mps 691 mmHg 93%
    23:00 +21°C° 0 mm 1 mps 690 mmHg 92%

    Tomorrow, 20 February, Thursday

    Time Temperature Precipitation Wind Pressure Humidity
    00:00 +21°C° 0 mm 1 mps 690 mmHg 90%
    01:00 +21°C° 0 mm 1 mps 690 mmHg 89%
    02:00 +21°C° 0 mm 1 mps 690 mmHg 88%
    03:00 +21°C° 0 mm 1 mps 690 mmHg 88%
    04:00 +21°C° 0 mm 1 mps 689 mmHg 87%
    05:00 +21°C° 0 mm 1 mps 690 mmHg 87%
    06:00 +21°C° 0 mm 1 mps 690 mmHg 87%
    07:00 +22°C° 0 mm 1 mps 691 mmHg 87%
    08:00 +24°C° 0 mm 1 mps 691 mmHg 78%
    09:00 +27°C° 0 mm 1 mps 692 mmHg 69%
    10:00 +30°C° 0 mm 1 mps 692 mmHg 60%
    11:00 +31°C° 0 mm 1 mps 692 mmHg 57%
    12:00 +30°C° 0 mm 0 mps 691 mmHg 54%
    13:00 +31°C° 0 mm 0 mps 691 mmHg 51%
    14:00 +30°C° 0.2 mm 0 mps 690 mmHg 56%
    15:00 +31°C° 0.2 mm 1 mps 689 mmHg 61%
    16:00 +30°C° 0.2 mm 1 mps 688 mmHg 66%
    17:00 +28°C° 1.4 mm 1 mps 688 mmHg 75%
    18:00 +26°C° 1.4 mm 1 mps 688 mmHg 84%
    19:00 +22°C° 1.4 mm 0 mps 689 mmHg 92%
    20:00 +22°C° 1 mm 0 mps 689 mmHg 93%
    21:00 +21°C° 1 mm 0 mps 689 mmHg 94%
    22:00 +21°C° 1 mm 0 mps 690 mmHg 95%
    23:00 +21°C° 0.1 mm 0 mps 690 mmHg 95%

    Day after tomorrow, 21 February, Friday

    Time Temperature Precipitation Wind Pressure Humidity
    00:00 +21°C° 0.1 mm 0 mps 689 mmHg 96%
    01:00 +22°C° 0.1 mm 1 mps 689 mmHg 96%
    02:00 +22°C° 0 mm 1 mps 689 mmHg 96%
    03:00 +22°C° 0 mm 1 mps 689 mmHg 96%
    04:00 +22°C° 0 mm 1 mps 688 mmHg 96%
    05:00 +22°C° 0 mm 1 mps 689 mmHg 96%
    06:00 +23°C° 0 mm 1 mps 689 mmHg 96%
    07:00 +23°C° 0 mm 1 mps 690 mmHg 95%
    14:00 +32°C° 0.5 mm 1 mps 689 mmHg 62%
    15:00 +31°C° 0.8 mm 1 mps 689 mmHg 69%
    16:00 +27°C° 0.8 mm 0 mps 688 mmHg 77%
    17:00 +26°C° 1.6 mm 0 mps 688 mmHg 82%
    18:00 +24°C° 1.6 mm 0 mps 688 mmHg 88%
    19:00 +22°C° 1.6 mm 0 mps 688 mmHg 93%
    20:00 +22°C° 0.1 mm 0 mps 689 mmHg 93%
    21:00 +21°C° 0.1 mm 0 mps 689 mmHg 94%
    22:00 +21°C° 0.1 mm 0 mps 690 mmHg 94%
    23:00 +21°C° 0 mm 0 mps 690 mmHg 95%

    22 February, Saturday

    Time Temperature Precipitation Wind Pressure Humidity
    00:00 +21°C° 0 mm 0 mps 690 mmHg 95%
    01:00 +21°C° 0 mm 0 mps 690 mmHg 95%
    02:00 +21°C° 0.4 mm 0 mps 689 mmHg 95%
    03:00 +23°C° 0.4 mm 1 mps 689 mmHg 95%
    04:00 +23°C° 0.4 mm 1 mps 689 mmHg 96%
    05:00 +23°C° 0.5 mm 1 mps 689 mmHg 95%
    06:00 +23°C° 0.5 mm 1 mps 690 mmHg 95%
    07:00 +23°C° 0.5 mm 1 mps 690 mmHg 95%
    08:00 +25°C° 0 mm 1 mps 691 mmHg 87%
    09:00 +27°C° 0 mm 1 mps 691 mmHg 79%
    10:00 +29°C° 0 mm 1 mps 691 mmHg 71%
    11:00 +31°C° 0.2 mm 1 mps 691 mmHg 66%
    12:00 +32°C° 0.2 mm 1 mps 691 mmHg 62%
    13:00 +31°C° 0.2 mm 0 mps 690 mmHg 57%
    14:00 +32°C° 0.7 mm 1 mps 689 mmHg 63%
    15:00 +31°C° 0.7 mm 1 mps 689 mmHg 69%
    16:00 +30°C° 0.7 mm 2 mps 688 mmHg 74%
    17:00 +28°C° 1.6 mm 1 mps 689 mmHg 81%
    18:00 +26°C° 1.6 mm 1 mps 689 mmHg 87%
    19:00 +24°C° 1.6 mm 1 mps 689 mmHg 94%
    20:00 +24°C° 1 mm 1 mps 690 mmHg 95%
    21:00 +24°C° 1 mm 1 mps 690 mmHg 95%
    22:00 +23°C° 1 mm 2 mps 691 mmHg 96%
    23:00 +23°C° 0.1 mm 1 mps 690 mmHg 96%

    23 February, Sunday

    Time Temperature Precipitation Wind Pressure Humidity
    00:00 +23°C° 0.1 mm 1 mps 690 mmHg 97%
    01:00 +23°C° 0.1 mm 1 mps 690 mmHg 97%
    02:00 +23°C° 0 mm 1 mps 690 mmHg 97%
    03:00 +23°C° 0 mm 1 mps 690 mmHg 97%
    04:00 +21°C° 0 mm 0 mps 690 mmHg 98%
    05:00 +21°C° 0 mm 0 mps 690 mmHg 98%
    06:00 +21°C° 0 mm 0 mps 690 mmHg 98%
    07:00 +21°C° 0 mm 0 mps 691 mmHg 98%
    08:00 +22°C° 0.1 mm 0 mps 691 mmHg 96%
    09:00 +22°C° 0.1 mm 0 mps 692 mmHg 95%
    10:00 +23°C° 0.1 mm 0 mps 692 mmHg 93%
    11:00 +26°C° 0.5 mm 1 mps 692 mmHg 89%
    12:00 +26°C° 0.5 mm 1 mps 691 mmHg 85%
    13:00 +27°C° 0.5 mm 1 mps 691 mmHg 81%
    14:00 +26°C° 0.6 mm 1 mps 690 mmHg 86%
    15:00 +25°C° 0.6 mm 1 mps 690 mmHg 90%
    16:00 +25°C° 0.6 mm 1 mps 689 mmHg 95%
    17:00 +24°C° 0.3 mm 1 mps 689 mmHg 96%
    18:00 +24°C° 0.3 mm 1 mps 690 mmHg 97%
    19:00 +23°C° 0.3 mm 1 mps 690 mmHg 98%
    20:00 +23°C° 0 mm 1 mps 690 mmHg 98%
    21:00 +23°C° 0 mm 1 mps 691 mmHg 98%
    22:00 +23°C° 0 mm 1 mps 691 mmHg 99%
    23:00 +23°C° 0 mm 1 mps 691 mmHg 99%

    24 February, Monday

    Time Temperature Precipitation Wind Pressure Humidity
    00:00 +23°C° 0 mm 1 mps 691 mmHg 99%
    01:00 +23°C° 0 mm 1 mps 690 mmHg 98%
    02:00 +22°C° 0 mm 1 mps 690 mmHg 98%
    03:00 +22°C° 0 mm 1 mps 690 mmHg 98%
    04:00 +22°C° 0 mm 1 mps 689 mmHg 98%
    05:00 +20°C° 0 mm 0 mps 690 mmHg 98%
    06:00 +20°C° 0 mm 0 mps 690 mmHg 98%
    07:00 +20°C° 0 mm 0 mps 691 mmHg 98%
    08:00 +21°C° 0 mm 0 mps 691 mmHg 96%
    09:00 +22°C° 0 mm 0 mps 692 mmHg 93%
    10:00 +22°C° 0 mm 0 mps 692 mmHg 91%
    11:00 +25°C° 0.1 mm 1 mps 692 mmHg 86%
    12:00 +26°C° 0.1 mm 1 mps 692 mmHg 81%
    13:00 +27°C° 0.1 mm 1 mps 692 mmHg 76%
    14:00 +27°C° 0.7 mm 1 mps 691 mmHg 80%
    15:00 +26°C° 0.7 mm 1 mps 691 mmHg 84%
    16:00 +26°C° 0.7 mm 1 mps 690 mmHg 88%
    17:00 +25°C° 1.3 mm 1 mps 691 mmHg 90%
    18:00 +24°C° 1.3 mm 1 mps 691 mmHg 93%
    19:00 +23°C° 1.3 mm 1 mps 691 mmHg 96%
    20:00 +21°C° 0.9 mm 0 mps 691 mmHg 96%
    21:00 +20°C° 0.9 mm 0 mps 691 mmHg 96%
    22:00 +20°C° 0.9 mm 0 mps 692 mmHg 96%
    23:00 +22°C° 0 mm 1 mps 691 mmHg 96%
    Show more